[[{"header":{"parameterUnit":"m.s-1","parameterCategory":1,"la1":30.2991,"la2":30.254,"lo1":-89.0895,"lo2":-89.0444,"dx":0.0017,"dy":0.0017,"nx":28,"ny":28,"refTime":"2023-01-02T15:00:00:Z","depth":0,"parameterNumber":2,"parameterNumberName":"U-component_of_WINDS"},"data":[0,0,0,0,0,0,0,0,0,0,0,0,0,0,0,0,0,0,0,0,0,0,0,0,0,0,0,0,0,0,0,0,0,0,0,0,0,0,0,0,0,0,0,0,0,0,0,0,0,0,0,0,0,0,0,0,0,0,-0.2056,-0.2057,0,-0.2123,-0.2124,-0.2125,-0.2184,-0.2185,-0.2185,-0.2186,-0.2252,-0.2253,-0.2254,0,0,0,0,0,0,0,0,0,0,0,0,0,-0.1976,-0.1977,-0.2056,-0.2057,-0.2058,-0.2123,-0.2124,-0.2125,-0.2184,-0.2185,-0.2186,-0.2186,-0.2251,-0.2252,-0.2254,0,0,0,0,0,0,0,0,0,0,0,0,0,-0.2024,-0.1978,-0.2056,-0.2095,-0.21,-0.2123,-0.2124,-0.2125,-0.2184,-0.2185,-0.2186,-0.2187,-0.2251,-0.2252,-0.2254,-0.2243,0,0,-0.2259,-0.226,0,0,0,0,0,0,0,0,-0.2021,-0.2027,-0.2089,-0.2093,-0.2097,-0.2147,-0.212,-0.2165,-0.2184,-0.2152,-0.2186,-0.2187,-0.2216,-0.222,-0.223,-0.2246,-0.2249,-0.2259,-0.226,-0.2261,-0.2261,0,0,0,0,0,0,0,-0.2018,-0.2024,-0.2083,-0.209,-0.2095,-0.2109,-0.2116,-0.2129,-0.2177,-0.2155,-0.2159,-0.2166,-0.2218,-0.2229,-0.2232,-0.225,-0.2259,-0.2261,-0.2262,-0.2262,-0.2259,-0.2258,0,0,0,0,0,0,-0.2009,-0.2021,-0.2081,-0.2085,-0.2061,-0.2109,-0.2118,-0.213,-0.2177,-0.2185,-0.2165,-0.2169,-0.2225,-0.223,-0.2235,-0.2225,-0.2261,-0.2262,-0.2263,-0.226,-0.2259,-0.2258,0,0,0,0,0,0,-0.2007,-0.2014,-0.2078,-0.2054,-0.2063,-0.2109,-0.2122,-0.213,-0.2141,-0.2185,-0.2194,-0.2167,-0.2226,-0.2232,-0.2241,-0.2228,-0.2263,-0.2265,-0.2262,-0.226,-0.2259,-0.2204,0,0,0,0,0,0,-0.2004,-0.2013,-0.201,-0.2054,-0.2064,-0.2083,-0.2121,-0.2131,-0.2144,-0.2149,-0.2189,-0.2197,-0.2228,-0.2238,-0.2242,-0.2231,-0.2266,-0.2263,-0.2261,-0.2259,-0.2207,-0.2201,-0.2195,0,0,0,0,0,-0.2001,-0.1991,-0.2009,-0.2016,-0.2062,-0.2083,-0.2089,-0.2125,-0.2143,-0.214,-0.2168,-0.2196,-0.2229,-0.2238,-0.2244,-0.2232,-0.2264,-0.2262,-0.2259,-0.221,-0.2202,-0.2195,0,0,0,0,0,0,-0.1943,-0.1998,-0.2018,-0.2022,-0.2047,-0.2093,-0.209,-0.2116,-0.2136,-0.214,-0.2183,-0.2192,-0.2194,-0.2214,-0.2224,-0.2224,-0.225,-0.2249,-0.2211,-0.2204,-0.2198,-0.2192,-0.2267,0,0,0,0,0,-0.1931,-0.1944,-0.1991,-0.199,-0.2002,-0.2043,-0.2054,-0.208,-0.2107,-0.2118,-0.2147,-0.2171,-0.2187,-0.2197,-0.2214,-0.2211,-0.222,-0.2205,-0.2199,-0.2194,-0.2192,-0.2191,-0.2185,-0.225,-0.225,-0.225,0,0,-0.1906,-0.1937,-0.1943,-0.1979,-0.2002,-0.2013,-0.2052,-0.2063,-0.2071,-0.2119,-0.2129,-0.215,-0.2181,-0.2183,-0.2186,-0.22,-0.2176,-0.2191,-0.2187,-0.2188,-0.2188,-0.2182,-0.2176,-0.2249,-0.2249,-0.2249,0,0,-0.1866,-0.1891,-0.1893,-0.1915,-0.1949,-0.1977,-0.1977,-0.2018,-0.2035,-0.2045,-0.2081,-0.2092,-0.2118,-0.2138,-0.2152,-0.2119,-0.2145,-0.2123,-0.2092,-0.209,-0.2085,-0.208,-0.2067,-0.2062,-0.2121,-0.2121,-0.2121,0,-0.1829,-0.185,-0.189,-0.1899,-0.1913,-0.1958,-0.1959,-0.1978,-0.2015,-0.2024,-0.2039,-0.2074,-0.2097,-0.2104,-0.2096,-0.2106,-0.2107,-0.2118,-0.2083,-0.2079,-0.2075,-0.2063,-0.2058,-0.2118,-0.2118,-0.2119,-0.2119,0,-0.1803,-0.1816,-0.1813,-0.1849,-0.1863,-0.1868,-0.1908,-0.1917,-0.1942,-0.1967,-0.1977,-0.2007,-0.2031,-0.2035,-0.2058,-0.2045,-0.2052,-0.2075,-0.2102,-0.2065,-0.2055,-0.2051,-0.2114,-0.2115,-0.2116,-0.2117,0,0,-0.1727,-0.1786,-0.1784,-0.18,-0.1841,-0.1851,-0.1858,-0.1882,-0.1888,-0.1912,-0.1918,-0.194,-0.1961,-0.1976,-0.2002,-0.2001,-0.1972,-0.2024,-0.2025,-0.2012,-0.1957,-0.1939,-0.1933,-0.1989,-0.1989,-0.1988,-0.1954,0,-0.1693,-0.1708,-0.1744,-0.1748,-0.1759,-0.1802,-0.1808,-0.1832,-0.1857,-0.1869,-0.1896,-0.191,-0.1937,-0.1947,-0.1948,-0.1975,-0.1961,-0.1978,-0.1994,-0.1994,-0.1983,-0.1928,-0.1909,-0.1875,-0.195,-0.195,-0.1949,0,-0.1655,-0.1677,-0.1681,-0.1721,-0.1727,-0.1731,-0.1756,-0.1768,-0.1797,-0.1815,-0.1832,-0.1861,-0.1869,-0.1895,-0.1905,-0.1916,-0.1925,-0.1939,-0.1939,-0.1941,-0.1968,-0.1927,-0.1865,-0.186,-0.1943,-0.1944,-0.1944,0,-0.1598,-0.1629,-0.1635,-0.1648,-0.1695,-0.1696,-0.1716,-0.1746,-0.1758,-0.1779,-0.1787,-0.1808,-0.1819,-0.1835,-0.1869,-0.1885,-0.1875,-0.1904,-0.1889,-0.1888,-0.1884,-0.1884,-0.1822,-0.1891,-0.1892,-0.1892,-0.1892,0,-0.1555,-0.1556,-0.161,-0.1614,-0.1616,-0.1657,-0.1657,-0.1681,-0.1707,-0.1715,-0.1753,-0.176,-0.1805,-0.1817,-0.1844,-0.1848,-0.1853,-0.1866,-0.1873,-0.1862,-0.186,-0.1867,-0.187,-0.189,-0.1891,-0.1891,-0.1891,0,-0.1491,-0.1528,-0.1538,-0.1581,-0.1592,-0.1591,-0.1628,-0.1633,-0.1659,-0.1669,-0.1674,-0.1715,-0.1731,-0.1767,-0.1792,-0.181,-0.1806,-0.182,-0.1797,-0.1801,-0.1783,-0.1784,-0.1723,-0.1716,-0.1791,-0.179,-0.1789,0,-0.1461,-0.1463,-0.1506,-0.1515,-0.1533,-0.1546,-0.1559,-0.1599,-0.1611,-0.1643,-0.1643,-0.1662,-0.1679,-0.1702,-0.1734,-0.1753,-0.1766,-0.1743,-0.1769,-0.1758,-0.1764,-0.1763,-0.1763,-0.1737,-0.1736,-0.1735,-0.1735,0,-0.1403,-0.1421,-0.1438,-0.1461,-0.1475,-0.1494,-0.1516,-0.1521,-0.1567,-0.1577,-0.1594,-0.1607,-0.1633,-0.1651,-0.1674,-0.1693,-0.1721,-0.1726,-0.1724,-0.1712,-0.1698,-0.1704,-0.178,-0.1727,-0.1728,-0.1729,-0.1729,-0.1729,-0.1354,-0.1357,-0.1388,-0.1406,-0.1426,-0.1446,-0.1452,-0.148,-0.1495,-0.1519,-0.1542,-0.1556,-0.1584,-0.162,-0.1636,-0.1647,-0.1662,-0.1658,-0.1657,-0.1655,-0.165,-0.1697,-0.1652,-0.1652,-0.1653,-0.1653,-0.1653,0,-0.1297,-0.1319,-0.1335,-0.1364,-0.1377,-0.1404,-0.1429,-0.1438,-0.145,-0.1475,-0.1491,-0.1509,-0.1527,-0.156,-0.1579,-0.1582,-0.1595,-0.1585,-0.1585,-0.1589,-0.1636,-0.1636,-0.1574,-0.1574,-0.1574,-0.1574,-0.1574,-0.1574,-0.1269,-0.1275,-0.1297,-0.1313,-0.1335,-0.135,-0.1362,-0.138,-0.1399,-0.1418,-0.1433,-0.1455,-0.1482,-0.1504,-0.1521,-0.153,-0.1535,-0.1521,-0.1534,-0.1578,-0.1585,-0.1592,-0.1592,-0.1522,-0.1522,-0.1486,-0.1485,-0.1485]},{"header":{"parameterUnit":"m.s-1","parameterCategory":1,"la1":30.2991,"la2":30.254,"lo1":-89.0895,"lo2":-89.0444,"dx":0.0017,"dy":0.0017,"nx":28,"ny":28,"refTime":"2023-01-02T15:00:00:Z","depth":0,"parameterNumber":3,"parameterNumberName":"V-component_of_WINDS"},"data":[0,0,0,0,0,0,0,0,0,0,0,0,0,0,0,0,0,0,0,0,0,0,0,0,0,0,0,0,0,0,0,0,0,0,0,0,0,0,0,0,0,0,0,0,0,0,0,0,0,0,0,0,0,0,0,0,0,0,4.9498,4.95,0,4.9637,4.9638,4.964,4.9649,4.9648,4.9646,4.9645,4.9791,4.9797,4.9802,0,0,0,0,0,0,0,0,0,0,0,0,0,4.9248,4.9252,4.9498,4.95,4.9501,4.9636,4.9638,4.964,4.965,4.9648,4.9646,4.9644,4.979,4.9796,4.9802,0,0,0,0,0,0,0,0,0,0,0,0,0,4.9368,4.9254,4.9498,4.9522,4.9526,4.9636,4.9638,4.9641,4.965,4.9648,4.9645,4.9643,4.9788,4.9795,4.9803,4.99,0,0,4.9828,4.9831,0,0,0,0,0,0,0,0,4.9361,4.9378,4.9517,4.9521,4.9525,4.9623,4.9604,4.9728,4.9651,4.9603,4.9645,4.9642,4.9738,4.975,4.9781,4.9907,4.9913,4.9829,4.9833,4.9837,4.9839,0,0,0,0,0,0,0,4.9353,4.9372,4.9553,4.9519,4.9524,4.9528,4.9543,4.9627,4.9682,4.9607,4.9608,4.9624,4.9739,4.9773,4.9785,4.9915,4.9828,4.9836,4.984,4.9844,5.0131,5.0133,0,0,0,0,0,0,4.9339,4.9365,4.9549,4.9557,4.9436,4.9535,4.9551,4.9594,4.9681,4.9692,4.9626,4.9624,4.9761,4.9775,4.979,4.9911,4.9837,4.9844,4.9849,5.0128,5.0131,5.0134,0,0,0,0,0,0,4.9334,4.9355,4.9543,4.9461,4.9485,4.9542,4.959,4.9598,4.9632,4.9695,4.9706,4.965,4.9759,4.9778,4.9873,4.9916,4.9848,4.9855,5.0125,5.0129,5.0133,5.0153,0,0,0,0,0,0,4.9327,4.9353,4.9389,4.9462,4.949,4.9622,4.9592,4.9603,4.9645,4.9644,4.9721,4.9731,4.9759,4.9861,4.9881,4.9926,4.9862,5.0121,5.0127,5.0132,5.0149,5.0157,5.0164,0,0,0,0,0,4.9318,4.9389,4.9391,4.9413,4.9535,4.9624,4.9641,4.967,4.9648,4.9686,4.9727,4.9729,4.9908,4.987,4.9893,4.9941,5.0119,5.0125,5.0131,5.0145,5.0155,5.0164,0,0,0,0,0,0,4.9322,4.9399,4.9402,4.9499,4.9555,4.9626,4.9674,4.9679,4.9744,4.974,4.9775,4.9793,4.9887,4.9923,4.988,5.0041,5.0011,5.0022,5.0014,5.0024,5.0032,5.0022,4.9868,0,0,0,0,0,4.9333,4.9397,4.9463,4.9542,4.957,4.9617,4.9657,4.9675,4.9735,4.9759,4.9807,4.9867,4.9937,4.9982,5.005,5.0153,5.0172,5.0198,5.0206,5.0212,5.0222,5.0283,5.0296,5.0155,5.0155,5.0155,0,0,4.9359,4.941,4.9448,4.9544,4.959,4.9658,4.9637,4.9709,4.9761,4.9771,4.9863,4.99,4.997,5.007,5.0116,5.0103,5.0265,5.022,5.0225,5.0231,5.0291,5.0304,5.0316,5.0159,5.0159,5.0158,0,0,4.9442,4.9485,4.9557,4.9603,4.9672,4.9703,4.972,4.9791,4.9816,4.9909,4.9919,4.9982,5.01,5.015,5.0191,5.0294,5.03,5.0316,5.0358,5.0417,5.0428,5.0438,5.0478,5.0492,5.0325,5.0325,5.0325,0,4.9465,4.9566,4.9594,4.9667,4.971,4.9721,4.9796,4.984,4.9928,4.9959,4.9942,5.0094,5.0141,5.0255,5.028,5.0312,5.0335,5.0308,5.0424,5.0434,5.0444,5.0483,5.0497,5.0327,5.0326,5.0326,5.0326,0,4.9594,4.9664,4.9715,4.9799,4.9848,4.9921,4.9963,5.0009,5.0023,5.0057,5.0154,5.021,5.0291,5.0319,5.0333,5.0436,5.0426,5.0416,5.0387,5.0459,5.0496,5.0511,5.0329,5.0328,5.0328,5.0327,0,0,4.9683,4.9782,4.98,4.984,4.9917,4.9973,5.0049,5.0127,5.0168,5.0228,5.0295,5.0396,5.0388,5.0434,5.0455,5.0506,5.0588,5.0491,5.0493,5.0509,5.0709,5.0717,5.0734,5.0591,5.0594,5.0596,5.0704,0,4.9776,4.9909,4.9937,5.0053,5.012,5.0132,5.0198,5.0254,5.0288,5.0351,5.0389,5.0462,5.0444,5.0473,5.0524,5.0567,5.0629,5.056,5.0656,5.0659,5.0641,5.0753,5.0761,5.086,5.0718,5.0721,5.0722,0,4.9902,4.9966,5.0088,5.0159,5.0188,5.0247,5.0322,5.0381,5.0447,5.0468,5.0521,5.0536,5.0618,5.0583,5.0698,5.065,5.0692,5.0719,5.0724,5.0736,5.0697,5.0771,5.0892,5.0908,5.0745,5.0743,5.0741,0,4.9959,5.0074,5.0163,5.0196,5.028,5.0322,5.0359,5.0422,5.0468,5.0534,5.0565,5.064,5.0682,5.0741,5.0777,5.0748,5.0891,5.0859,5.0914,5.0913,5.0945,5.0943,5.1078,5.0967,5.0967,5.0966,5.0966,0,5.0061,5.0136,5.019,5.0245,5.0331,5.0363,5.0447,5.0485,5.0541,5.0605,5.062,5.0681,5.0723,5.0791,5.082,5.0913,5.0931,5.0953,5.096,5.0953,5.0951,5.0982,5.0978,5.097,5.0969,5.0969,5.0968,0,5.0139,5.0177,5.0276,5.0347,5.0367,5.0428,5.049,5.0546,5.058,5.0661,5.0683,5.0737,5.0818,5.0859,5.0959,5.0979,5.1085,5.1086,5.1063,5.1066,5.112,5.1115,5.1282,5.1307,5.1177,5.1178,5.1179,0,5.0203,5.0261,5.0339,5.0383,5.0421,5.0491,5.0538,5.0573,5.0621,5.0701,5.0748,5.0829,5.0895,5.1024,5.1074,5.1152,5.1158,5.1211,5.117,5.1162,5.1162,5.116,5.1167,5.1219,5.122,5.1221,5.1222,0,5.0314,5.033,5.0396,5.0471,5.0526,5.0586,5.0646,5.0681,5.0726,5.0781,5.0863,5.0915,5.1017,5.1099,5.1181,5.1222,5.1231,5.1234,5.1251,5.1246,5.1231,5.1243,5.1086,5.123,5.123,5.1229,5.1228,5.1228,5.0389,5.0442,5.0506,5.058,5.0629,5.0684,5.0741,5.0782,5.085,5.0936,5.0953,5.1041,5.1107,5.1218,5.1261,5.1332,5.1322,5.1346,5.1353,5.1359,5.1363,5.1217,5.1347,5.1347,5.1347,5.1346,5.1346,0,5.0503,5.0545,5.0612,5.0695,5.0755,5.0755,5.0822,5.0873,5.0949,5.1009,5.1075,5.1171,5.125,5.1307,5.1389,5.1435,5.1441,5.1455,5.1454,5.1464,5.1366,5.1345,5.1449,5.1449,5.1449,5.1449,5.1449,5.1449,5.0569,5.0661,5.0685,5.0802,5.0844,5.0929,5.0967,5.102,5.1069,5.1174,5.124,5.1276,5.1336,5.1423,5.1497,5.1512,5.1543,5.1557,5.1573,5.1481,5.147,5.146,5.144,5.1563,5.1563,5.1665,5.1666,5.1666]}]]